Location: Anumalkud?ru
(16.4847°N, 80.6636°E)
Time: 22:31:48
(UTC+00:00)

Meteor 2-4 Rocket - Pass Details

Date: 11 April 2026
Orbit: 798 x 907 km, 81.2° (Epoch: 9 May)

Event Time Altitude Azimuth Distance (km) Brightness Sun altitude
Exits shadow 22:33:30 19° 171° (S) 1,901 5.4 -26.7°
Maximum altitude 22:37:28 63° 94° (E) 932 4.0 -25.8°
Drops below altitude 10° 22:42:51 10° 15° (NNE) 2,415 6.5 -24.5°
Sets 22:45:14 0° 12° (NNE) 3,335 7.2 -24.0°
